View from above orbital plane
|
View from above satellite
|
Ground track
|
The orbit data is extracted from the following two-line orbital elements,
1 04579U 70083B 21063.56004216 .00000115 00000-0 29917-4 0 9998
2 04579 74.0040 16.5515 0009327 52.2256 307.9753 14.60510957672713
Epoch (UTC): | 04 March 2021 13:26:27 |
Eccentricity: | 0.0009327 |
inclination: | 74.0040° |
perigee height: | 685 km |
apogee height: | 698 km |
right ascension of ascending node: | 16.5515° |
argument of perigee: | 52.2256° |
revolutions per day: | 14.60510957 |
mean anomaly at epoch: | 307.9753° |
orbit number at epoch: | 67271 |
The dashed part of the orbit path shows where the satellite is in the earth's shadow,
|
|